Flag for U.S.A. Weather past 2 weeks in San Antonio, Texas, U.S.A.

Now
32 °F

Clear.


Feels Like: 25 °F
Forecast: 29 / 54 °F
Wind: 8 mph from North

Location: San Antonio International Airport

Current Time: Mar 6, 2015 at 7:07:29 AM

Latest Report: Mar 6, 2015 at 5:51 AM


Visibility: 10 mi

Pressure: 30.54 "Hg

Humidity: 59%

Dew point: 19 °F

Location of San AntonioLocation

Historic Weather in San Antonio — Graph

°F

San Antonio temperature yesterday

Maximum temperature yesterday: 49 °F (at 3:51 PM)
Minimum temperature yesterday: 33 °F (at 5:51 AM)
Average temperature yesterday: 40 °F

Past Weeks' High & Low Weather Summary

 TemperatureHumidityPressure
High79 °F (Feb 21, 3:51 PM)97% (Mar 3, 1:51 AM)30.58 "Hg (Mar 3, 1:51 AM)
Low32 °F (Feb 24, 12:51 AM)22% (Feb 25, 3:51 PM)29.74 "Hg (Feb 20, 4:51 PM)
Average48 °F76%30.11 "Hg
* Reported Feb 19 5:51 AM — Mar 6 5:51 AM, San Antonio, Weather by CustomWeather, © 2015

Note: Actual official high and low records may vary slightly from our data, if they occured in-between our weather recording intervals... More about our weather records

Advertising

San Antonio weather history for previous 24 hours

 ConditionsComfort  
Time TempWeatherWind HumidityBarometerVisibility
5:51 AM
Fri, Mar 6
32 °FClear.8 mph59%30.54 "Hg10 mi
4:51 AM32 °FClear.7 mph59%30.54 "Hg10 mi
3:51 AM32 °FClear.8 mph61%30.54 "Hg10 mi
2:51 AM32 °FClear.8 mph64%30.54 "Hg10 mi
1:51 AM33 °FClear.8 mph61%30.54 "Hg10 mi
12:51 AM33 °FClear.5 mph61%30.55 "Hg10 mi
11:51 PM
Thu, Mar 5
35 °FPassing clouds.5 mph59%30.56 "Hg10 mi
10:51 PM35 °FPassing clouds.5 mph61%30.58 "Hg10 mi
9:51 PM38 °FPassing clouds.5 mph51%30.57 "Hg10 mi
8:51 PM40 °FPassing clouds.8 mph47%30.55 "Hg10 mi
7:51 PM41 °FPassing clouds.6 mph45%30.54 "Hg10 mi
6:51 PM43 °FPassing clouds.9 mph38%30.51 "Hg10 mi
5:51 PM46 °FPassing clouds.13 mph35%30.49 "Hg10 mi
4:51 PM48 °FPassing clouds.14 mph32%30.48 "Hg10 mi
3:51 PM49 °FPassing clouds.14 mph32%30.46 "Hg10 mi
2:51 PM48 °FPassing clouds.17 mph33%30.46 "Hg10 mi
1:51 PM47 °FPassing clouds.21 mph36%30.47 "Hg10 mi
12:51 PM45 °FPassing clouds.23 mph37%30.50 "Hg10 mi
11:51 AM43 °FPassing clouds.22 mph43%30.52 "Hg10 mi
10:51 AM40 °FPassing clouds.22 mph55%30.51 "Hg10 mi
9:51 AM37 °FScattered clouds.17 mph65%30.50 "Hg10 mi
8:51 AM35 °FOvercast.22 mph72%30.47 "Hg10 mi
7:51 AM34 °FOvercast.15 mph76%30.41 "Hg10 mi
Weather by CustomWeather, © 2015

See weather overviewHow to use our weather pages